User: anonymous   Login
Location: Newark
(34.3481°N, 134.0494°E)
Time: 21:24:50
(UTC+00:00)
Language:

Courier 1B Rocket - Orbit

View from above orbital plane
View from above orbital plane
View from above satellite
View from above satellite

Ground track
Ground track

The orbit data is extracted from the following two-line orbital elements,

1    59U 60013B   20017.18000979 +.00000118 +00000-0 +42689-4 0  9991
2    59 028.2478 280.4012 0189225 088.1465 274.0740 13.52973386925965
Epoch (UTC): 17 January 2020 04:19:12
Eccentricity: 0.0189225
inclination: 28.2478°
perigee height: 920 km
apogee height: 1202 km
right ascension of ascending node: 280.4012°
argument of perigee: 88.1465°
revolutions per day: 13.52973386
mean anomaly at epoch: 274.0740°
orbit number at epoch: 92596

The dashed part of the orbit path shows where the satellite is in the earth's shadow,  

DLR